Year,Month,Day,Hour,Minute,Value (Times are PST for temperature in C)
2007,10,01,00,00,10.10
2007,10,01,00,01,10.10
2007,10,01,00,02,10.10
2007,10,01,00,03,10.10
2007,10,01,00,04,10.10
2007,10,01,00,05,10.10
2007,10,01,00,06,10.10
2007,10,01,00,07,10.10
2007,10,01,00,08,10.10
2007,10,01,00,09,10.10
2007,10,01,00,10,10.10
2007,10,01,00,11,10.10
2007,10,01,00,12,10.10
2007,10,01,00,13,10.10
2007,10,01,00,14,10.10
2007,10,01,00,15,10.10
2007,10,01,00,16,10.10
2007,10,01,00,17,10.10
2007,10,01,00,18,10.10
2007,10,01,00,19,10.10
2007,10,01,00,20,10.20
2007,10,01,00,21,10.20
2007,10,01,00,22,10.20
2007,10,01,00,23,10.20
2007,10,01,00,24,10.20
2007,10,01,00,25,10.20
2007,10,01,00,26,10.30
2007,10,01,00,27,10.30
2007,10,01,00,28,10.30
2007,10,01,00,29,10.40
2007,10,01,00,30,10.40
2007,10,01,00,31,10.40
2007,10,01,00,32,10.40
2007,10,01,00,33,10.40
2007,10,01,00,34,10.40
2007,10,01,00,35,10.40
2007,10,01,00,36,10.40
2007,10,01,00,37,10.40
2007,10,01,00,38,10.40
2007,10,01,00,39,10.50
2007,10,01,00,40,10.60
2007,10,01,00,41,10.60
2007,10,01,00,42,10.60
2007,10,01,00,43,10.60
2007,10,01,00,44,10.60
2007,10,01,00,45,10.60
2007,10,01,00,46,10.60
2007,10,01,00,47,10.60
2007,10,01,00,48,10.60
2007,10,01,00,49,10.60
2007,10,01,00,50,10.60
2007,10,01,00,51,10.60
2007,10,01,00,52,10.60
2007,10,01,00,53,10.60
2007,10,01,00,54,10.60
2007,10,01,00,55,10.40
2007,10,01,00,56,10.40
2007,10,01,00,57,10.40
2007,10,01,00,58,10.40
2007,10,01,00,59,10.40
2007,10,01,01,00,10.40
2007,10,01,01,01,10.40
2007,10,01,01,02,10.40
2007,10,01,01,03,10.40
2007,10,01,01,04,10.40
2007,10,01,01,05,10.40
2007,10,01,01,06,10.40
2007,10,01,01,07,10.40
2007,10,01,01,08,10.40
2007,10,01,01,09,10.40
2007,10,01,01,10,10.40
2007,10,01,01,11,10.30
2007,10,01,01,12,10.30
2007,10,01,01,13,10.30
2007,10,01,01,14,10.30
2007,10,01,01,15,10.30
2007,10,01,01,16,10.30
2007,10,01,01,17,10.30
2007,10,01,01,18,10.30
2007,10,01,01,19,10.20
2007,10,01,01,20,10.20
2007,10,01,01,21,10.20
2007,10,01,01,22,10.20
2007,10,01,01,23,10.20
2007,10,01,01,24,10.20
2007,10,01,01,25,10.20
2007,10,01,01,26,10.20
2007,10,01,01,27,10.20
2007,10,01,01,28,10.20
2007,10,01,01,29,10.20
2007,10,01,01,30,10.20
2007,10,01,01,31,10.20
2007,10,01,01,32,10.20
2007,10,01,01,33,10.20
2007,10,01,01,34,10.20
2007,10,01,01,35,10.10
2007,10,01,01,36,10.10
2007,10,01,01,37,10.10
2007,10,01,01,38,10.10
2007,10,01,01,39,10.10
2007,10,01,01,40,10.10
2007,10,01,01,41,10.10
2007,10,01,01,42,10.10
2007,10,01,01,43,10.10
2007,10,01,01,44,10.10
2007,10,01,01,45,10.10
2007,10,01,01,46,10.10
2007,10,01,01,47,10.10
2007,10,01,01,48,10.10
2007,10,01,01,49,10.10
2007,10,01,01,50,10.10
2007,10,01,01,51,10.10
2007,10,01,01,52,10.10
2007,10,01,01,53,10.10
2007,10,01,01,54,10.10
2007,10,01,01,55,10.10
2007,10,01,01,56,10.10
2007,10,01,01,57,10.10
2007,10,01,01,58,10.10
2007,10,01,01,59,10.10
2007,10,01,02,00,10.10
2007,10,01,02,01,10.10
2007,10,01,02,02,10.10
2007,10,01,02,03,10.10
2007,10,01,02,04,10.10
2007,10,01,02,05,10.10
2007,10,01,02,06,10.10
2007,10,01,02,07,10.10
2007,10,01,02,08,10.10
2007,10,01,02,09,10.10
2007,10,01,02,10,10.10
2007,10,01,02,11,10.10
2007,10,01,02,12,10.10
2007,10,01,02,13,10.10
2007,10,01,02,14,10.10
2007,10,01,02,15,10.10
2007,10,01,02,16,10.10
2007,10,01,02,17,10.10
2007,10,01,02,18,10.10
2007,10,01,02,19,10.10
2007,10,01,02,20,10.10
2007,10,01,02,21,10.10
2007,10,01,02,22,10.00
2007,10,01,02,23,9.90
2007,10,01,02,24,9.90
2007,10,01,02,25,9.90
2007,10,01,02,26,9.90
2007,10,01,02,27,9.90
2007,10,01,02,28,9.90
2007,10,01,02,29,9.90
2007,10,01,02,30,9.90
2007,10,01,02,31,9.90
2007,10,01,02,32,9.90
2007,10,01,02,33,9.90
2007,10,01,02,34,9.90
2007,10,01,02,35,9.90
2007,10,01,02,36,9.90
2007,10,01,02,37,9.90
2007,10,01,02,38,9.90
2007,10,01,02,39,9.90
2007,10,01,02,40,10.00
2007,10,01,02,41,10.10
2007,10,01,02,42,10.10
2007,10,01,02,43,10.10
2007,10,01,02,44,10.10
2007,10,01,02,45,10.10
2007,10,01,02,46,10.10
2007,10,01,02,47,10.10
2007,10,01,02,48,10.10
2007,10,01,02,49,10.10
2007,10,01,02,50,10.10
2007,10,01,02,51,10.10
2007,10,01,02,52,10.10
2007,10,01,02,53,10.10
2007,10,01,02,54,10.10
2007,10,01,02,55,10.10
2007,10,01,02,56,10.10
2007,10,01,02,57,10.10
2007,10,01,02,58,10.10
2007,10,01,02,59,10.10
2007,10,01,03,00,10.10
2007,10,01,03,01,10.10
2007,10,01,03,02,10.10
2007,10,01,03,03,10.10
2007,10,01,03,04,10.10
2007,10,01,03,05,10.10
2007,10,01,03,06,10.10
2007,10,01,03,07,10.10
2007,10,01,03,08,10.10
2007,10,01,03,09,10.10
2007,10,01,03,10,10.10
2007,10,01,03,11,10.10
2007,10,01,03,12,9.90
2007,10,01,03,13,9.90
2007,10,01,03,14,9.90
2007,10,01,03,15,9.90
2007,10,01,03,16,9.90
2007,10,01,03,17,9.90
2007,10,01,03,18,9.90
2007,10,01,03,19,9.90
2007,10,01,03,20,9.90
2007,10,01,03,21,9.90
2007,10,01,03,22,9.90
2007,10,01,03,23,9.90
2007,10,01,03,24,9.90
2007,10,01,03,25,9.90
2007,10,01,03,26,9.90
2007,10,01,03,27,9.90
2007,10,01,03,28,9.90
2007,10,01,03,29,9.90
2007,10,01,03,30,9.90
2007,10,01,03,31,9.90
2007,10,01,03,32,9.90
2007,10,01,03,33,9.90
2007,10,01,03,34,9.90
2007,10,01,03,35,9.90
2007,10,01,03,36,9.90
2007,10,01,03,37,9.90
2007,10,01,03,38,9.90
2007,10,01,03,39,9.90
2007,10,01,03,40,10.00
2007,10,01,03,41,10.10
2007,10,01,03,42,10.10
2007,10,01,03,43,10.10
2007,10,01,03,44,10.10
2007,10,01,03,45,10.10
2007,10,01,03,46,10.10
2007,10,01,03,47,10.10
2007,10,01,03,48,10.20
2007,10,01,03,49,10.20
2007,10,01,03,50,10.20
2007,10,01,03,51,10.20
2007,10,01,03,52,10.20
2007,10,01,03,53,10.20
2007,10,01,03,54,10.30
2007,10,01,03,55,10.30
2007,10,01,03,56,10.30
2007,10,01,03,57,10.40
2007,10,01,03,58,10.40
2007,10,01,03,59,10.40
2007,10,01,04,00,10.40
2007,10,01,04,01,10.40
2007,10,01,04,02,10.40
2007,10,01,04,03,10.40
2007,10,01,04,04,10.50
2007,10,01,04,05,10.60
2007,10,01,04,06,10.60
2007,10,01,04,07,10.60
2007,10,01,04,08,10.60
2007,10,01,04,09,10.60
2007,10,01,04,10,10.60
2007,10,01,04,11,10.40
2007,10,01,04,12,10.40
2007,10,01,04,13,10.40
2007,10,01,04,14,10.40
2007,10,01,04,15,10.40
2007,10,01,04,16,10.40
2007,10,01,04,17,10.40
2007,10,01,04,18,10.30
2007,10,01,04,19,10.30
2007,10,01,04,20,10.30
2007,10,01,04,21,10.30
2007,10,01,04,22,10.30
2007,10,01,04,23,10.30
2007,10,01,04,24,10.30
2007,10,01,04,25,10.30
2007,10,01,04,26,10.30
2007,10,01,04,27,10.30
2007,10,01,04,28,10.30
2007,10,01,04,29,10.30
2007,10,01,04,30,10.30
2007,10,01,04,31,10.30
2007,10,01,04,32,10.30
2007,10,01,04,33,10.30
2007,10,01,04,34,10.30
2007,10,01,04,35,10.30
2007,10,01,04,36,10.30
2007,10,01,04,37,10.40
2007,10,01,04,38,10.40
2007,10,01,04,39,10.40
2007,10,01,04,40,10.40
2007,10,01,04,41,10.40
2007,10,01,04,42,10.40
2007,10,01,04,43,10.40
2007,10,01,04,44,10.40
2007,10,01,04,45,10.40
2007,10,01,04,46,10.40
2007,10,01,04,47,10.40
2007,10,01,04,48,10.40
2007,10,01,04,49,10.40
2007,10,01,04,50,10.40
2007,10,01,04,51,10.40
2007,10,01,04,52,10.40
2007,10,01,04,53,10.40
2007,10,01,04,54,10.40
2007,10,01,04,55,10.40
2007,10,01,04,56,10.40
2007,10,01,04,57,10.40
2007,10,01,04,58,10.40
2007,10,01,04,59,10.40
2007,10,01,05,00,10.40
2007,10,01,05,01,10.40
2007,10,01,05,02,10.40
2007,10,01,05,03,10.40
2007,10,01,05,04,10.40
2007,10,01,05,05,10.40
2007,10,01,05,06,10.40
2007,10,01,05,07,10.40
2007,10,01,05,08,10.40
2007,10,01,05,09,10.40
2007,10,01,05,10,10.40
2007,10,01,05,11,10.40
2007,10,01,05,12,10.40
2007,10,01,05,13,10.40
2007,10,01,05,14,10.40
2007,10,01,05,15,10.60
2007,10,01,05,16,10.60
2007,10,01,05,17,10.60
2007,10,01,05,18,10.60
2007,10,01,05,19,10.60
2007,10,01,05,20,10.60
2007,10,01,05,21,10.60
2007,10,01,05,22,10.60
2007,10,01,05,23,10.60
2007,10,01,05,24,10.60
2007,10,01,05,25,10.60
2007,10,01,05,26,10.60
2007,10,01,05,27,10.60
2007,10,01,05,28,10.60
2007,10,01,05,29,10.60
2007,10,01,05,30,10.60
2007,10,01,05,31,10.60
2007,10,01,05,32,10.60
2007,10,01,05,33,10.60
2007,10,01,05,34,10.60
2007,10,01,05,35,10.60
2007,10,01,05,36,10.60
2007,10,01,05,37,10.60
2007,10,01,05,38,10.60
2007,10,01,05,39,10.60
2007,10,01,05,40,10.60
2007,10,01,05,41,10.60
2007,10,01,05,42,10.60
2007,10,01,05,43,10.60
2007,10,01,05,44,10.60
2007,10,01,05,45,10.60
2007,10,01,05,46,10.60
2007,10,01,05,47,10.60
2007,10,01,05,48,10.60
2007,10,01,05,49,10.60
2007,10,01,05,50,10.60
2007,10,01,05,51,10.60
2007,10,01,05,52,10.60
2007,10,01,05,53,10.60
2007,10,01,05,54,10.60
2007,10,01,05,55,10.60
2007,10,01,05,56,10.60
2007,10,01,05,57,10.60
2007,10,01,05,58,10.60
2007,10,01,05,59,10.60
2007,10,01,06,00,10.60
2007,10,01,06,01,10.60
2007,10,01,06,02,10.60
2007,10,01,06,03,10.60
2007,10,01,06,04,10.60
2007,10,01,06,05,10.60
2007,10,01,06,06,10.60
2007,10,01,06,07,10.60
2007,10,01,06,08,10.50
2007,10,01,06,09,10.40
2007,10,01,06,10,10.40
2007,10,01,06,11,10.50
2007,10,01,06,12,10.60
2007,10,01,06,13,10.60
2007,10,01,06,14,10.60
2007,10,01,06,15,10.60
2007,10,01,06,16,10.60
2007,10,01,06,17,10.60
2007,10,01,06,18,10.60
2007,10,01,06,19,10.60
2007,10,01,06,20,10.60
2007,10,01,06,21,10.60
2007,10,01,06,22,10.60
2007,10,01,06,23,10.60
2007,10,01,06,24,10.60
2007,10,01,06,25,10.60
2007,10,01,06,26,10.60
2007,10,01,06,27,10.60
2007,10,01,06,28,10.60
2007,10,01,06,29,10.60
2007,10,01,06,30,10.60
2007,10,01,06,31,10.60
2007,10,01,06,32,10.60
2007,10,01,06,33,10.60
2007,10,01,06,34,10.60
2007,10,01,06,35,10.60
2007,10,01,06,36,10.60
2007,10,01,06,37,10.60
2007,10,01,06,38,10.60
2007,10,01,06,39,10.60
2007,10,01,06,40,10.60
2007,10,01,06,41,10.60
2007,10,01,06,42,10.60
2007,10,01,06,43,10.60
2007,10,01,06,44,10.60
2007,10,01,06,45,10.60
2007,10,01,06,46,10.60
2007,10,01,06,47,10.60
2007,10,01,06,48,10.60
2007,10,01,06,49,10.60
2007,10,01,06,50,10.60
2007,10,01,06,51,10.50
2007,10,01,06,52,10.40
2007,10,01,06,53,10.40
2007,10,01,06,54,10.40
2007,10,01,06,55,10.40
2007,10,01,06,56,10.40
2007,10,01,06,57,10.40
2007,10,01,06,58,10.40
2007,10,01,06,59,10.40
2007,10,01,07,00,10.40
2007,10,01,07,01,10.40
2007,10,01,07,02,10.40
2007,10,01,07,03,10.40
2007,10,01,07,04,10.40
2007,10,01,07,05,10.40
2007,10,01,07,06,10.40
2007,10,01,07,07,10.40
2007,10,01,07,08,10.40
2007,10,01,07,09,10.40
2007,10,01,07,10,10.40
2007,10,01,07,11,10.40
2007,10,01,07,12,10.40
2007,10,01,07,13,10.40
2007,10,01,07,14,10.40
2007,10,01,07,15,10.40
2007,10,01,07,16,10.40
2007,10,01,07,17,10.40
2007,10,01,07,18,10.50
2007,10,01,07,19,10.60
2007,10,01,07,20,10.60
2007,10,01,07,21,10.60
2007,10,01,07,22,10.60
2007,10,01,07,23,10.60
2007,10,01,07,24,10.60
2007,10,01,07,25,10.60
2007,10,01,07,26,10.60
2007,10,01,07,27,10.50
2007,10,01,07,28,10.40
2007,10,01,07,29,10.40
2007,10,01,07,30,10.40
2007,10,01,07,31,10.40
2007,10,01,07,32,10.40
2007,10,01,07,33,10.40
2007,10,01,07,34,10.40
2007,10,01,07,35,10.40
2007,10,01,07,36,10.40
2007,10,01,07,37,10.40
2007,10,01,07,38,10.40
2007,10,01,07,39,10.40
2007,10,01,07,40,10.40
2007,10,01,07,41,10.40
2007,10,01,07,42,10.40
2007,10,01,07,43,10.40
2007,10,01,07,44,10.40
2007,10,01,07,45,10.40
2007,10,01,07,46,10.40
2007,10,01,07,47,10.40
2007,10,01,07,48,10.40
2007,10,01,07,49,10.40
2007,10,01,07,50,10.40
2007,10,01,07,51,10.40
2007,10,01,07,52,10.40
2007,10,01,07,53,10.40
2007,10,01,07,54,10.40
2007,10,01,07,55,10.40
2007,10,01,07,56,10.40
2007,10,01,07,57,10.40
2007,10,01,07,58,10.40
2007,10,01,07,59,10.40
2007,10,01,08,00,10.40
2007,10,01,08,01,10.30
2007,10,01,08,02,10.30
2007,10,01,08,03,10.30
2007,10,01,08,04,10.30
2007,10,01,08,05,10.30
2007,10,01,08,06,10.30
2007,10,01,08,07,10.30
2007,10,01,08,08,10.30
2007,10,01,08,09,10.30
2007,10,01,08,10,10.30
2007,10,01,08,11,10.30
2007,10,01,08,12,10.30
2007,10,01,08,13,10.30
2007,10,01,08,14,10.30
2007,10,01,08,15,10.30
2007,10,01,08,16,10.30
2007,10,01,08,17,10.20
2007,10,01,08,18,10.20
2007,10,01,08,19,10.20
2007,10,01,08,20,10.30
2007,10,01,08,21,10.30
2007,10,01,08,22,10.30
2007,10,01,08,23,10.30
2007,10,01,08,24,10.30
2007,10,01,08,25,10.30
2007,10,01,08,26,10.30
2007,10,01,08,27,10.30
2007,10,01,08,28,10.30
2007,10,01,08,29,10.30
2007,10,01,08,30,10.30
2007,10,01,08,31,10.30
2007,10,01,08,32,10.30
2007,10,01,08,33,10.30
2007,10,01,08,34,10.40
2007,10,01,08,35,10.40
2007,10,01,08,36,10.40
2007,10,01,08,37,10.40
2007,10,01,08,38,10.40
2007,10,01,08,39,10.40
2007,10,01,08,40,10.40
2007,10,01,08,41,10.60
2007,10,01,08,42,10.60
2007,10,01,08,43,10.60
2007,10,01,08,44,10.70
2007,10,01,08,45,10.80
2007,10,01,08,46,10.80
2007,10,01,08,47,10.90
2007,10,01,08,48,10.90
2007,10,01,08,49,11.00
2007,10,01,08,50,11.10
2007,10,01,08,51,11.10
2007,10,01,08,52,11.10
2007,10,01,08,53,11.10
2007,10,01,08,54,11.20
2007,10,01,08,55,11.20
2007,10,01,08,56,11.20
2007,10,01,08,57,11.20
2007,10,01,08,58,11.20
2007,10,01,08,59,11.20
2007,10,01,09,00,11.20
2007,10,01,09,01,11.20
2007,10,01,09,02,11.20
2007,10,01,09,03,11.20
2007,10,01,09,04,11.20
2007,10,01,09,05,11.20
2007,10,01,09,06,11.20
2007,10,01,09,07,11.30
2007,10,01,09,08,11.40
2007,10,01,09,09,11.40
2007,10,01,09,10,11.50
2007,10,01,09,11,11.60
2007,10,01,09,12,11.60
2007,10,01,09,13,11.60
2007,10,01,09,14,11.70
2007,10,01,09,15,11.70
2007,10,01,09,16,11.70
2007,10,01,09,17,11.80
2007,10,01,09,18,11.80
2007,10,01,09,19,11.80
2007,10,01,09,20,11.80
2007,10,01,09,21,11.80
2007,10,01,09,22,11.80
2007,10,01,09,23,11.80
2007,10,01,09,24,11.80
2007,10,01,09,25,11.80
2007,10,01,09,26,11.70
2007,10,01,09,27,11.70
2007,10,01,09,28,11.60
2007,10,01,09,29,11.60
2007,10,01,09,30,11.60
2007,10,01,09,31,11.50
2007,10,01,09,32,11.40
2007,10,01,09,33,11.40
2007,10,01,09,34,11.40
2007,10,01,09,35,11.40
2007,10,01,09,36,11.30
2007,10,01,09,37,11.30
2007,10,01,09,38,11.20
2007,10,01,09,39,11.20
2007,10,01,09,40,11.20
2007,10,01,09,41,11.20
2007,10,01,09,42,11.20
2007,10,01,09,43,11.20
2007,10,01,09,44,11.20
2007,10,01,09,45,11.20
2007,10,01,09,46,11.20
2007,10,01,09,47,11.30
2007,10,01,09,48,11.20
2007,10,01,09,49,11.20
2007,10,01,09,50,11.20
2007,10,01,09,51,11.20
2007,10,01,09,52,11.20
2007,10,01,09,53,11.20
2007,10,01,09,54,11.30
2007,10,01,09,55,11.40
2007,10,01,09,56,11.40
2007,10,01,09,57,11.40
2007,10,01,09,58,11.40
2007,10,01,09,59,11.50
2007,10,01,10,00,11.60
2007,10,01,10,01,11.70
2007,10,01,10,02,11.70
2007,10,01,10,03,11.80
2007,10,01,10,04,11.80
2007,10,01,10,05,11.90
2007,10,01,10,06,12.00
2007,10,01,10,07,12.00
2007,10,01,10,08,12.10
2007,10,01,10,09,12.10
2007,10,01,10,10,12.10
2007,10,01,10,11,12.20
2007,10,01,10,12,12.10
2007,10,01,10,13,12.00
2007,10,01,10,14,12.10
2007,10,01,10,15,12.10
2007,10,01,10,16,12.20
2007,10,01,10,17,12.20
2007,10,01,10,18,12.20
2007,10,01,10,19,12.20
2007,10,01,10,20,12.20
2007,10,01,10,21,12.20
2007,10,01,10,22,12.10
2007,10,01,10,23,12.00
2007,10,01,10,24,12.00
2007,10,01,10,25,12.00
2007,10,01,10,26,11.90
2007,10,01,10,27,11.90
2007,10,01,10,28,11.90
2007,10,01,10,29,11.90
2007,10,01,10,30,11.90
2007,10,01,10,31,11.90
2007,10,01,10,32,11.90
2007,10,01,10,33,12.00
2007,10,01,10,34,12.10
2007,10,01,10,35,12.10
2007,10,01,10,36,12.20
2007,10,01,10,37,12.30
2007,10,01,10,38,12.40
2007,10,01,10,39,12.50
2007,10,01,10,40,12.60
2007,10,01,10,41,12.60
2007,10,01,10,42,12.70
2007,10,01,10,43,12.80
2007,10,01,10,44,12.80
2007,10,01,10,45,12.80
2007,10,01,10,46,12.80
2007,10,01,10,47,12.80
2007,10,01,10,48,12.80
2007,10,01,10,49,12.80
2007,10,01,10,50,12.80
2007,10,01,10,51,12.80
2007,10,01,10,52,12.70
2007,10,01,10,53,12.70
2007,10,01,10,54,12.70
2007,10,01,10,55,12.70
2007,10,01,10,56,12.60
2007,10,01,10,57,12.60
2007,10,01,10,58,12.70
2007,10,01,10,59,12.80
2007,10,01,11,00,12.80
2007,10,01,11,01,12.80
2007,10,01,11,02,12.80
2007,10,01,11,03,12.90
2007,10,01,11,04,12.90
2007,10,01,11,05,13.00
2007,10,01,11,06,13.00
2007,10,01,11,07,13.10
2007,10,01,11,08,13.20
2007,10,01,11,09,13.30
2007,10,01,11,10,13.30
2007,10,01,11,11,13.40
2007,10,01,11,12,13.50
2007,10,01,11,13,13.60
2007,10,01,11,14,13.60
2007,10,01,11,15,13.60
2007,10,01,11,16,13.70
2007,10,01,11,17,13.70
2007,10,01,11,18,13.70
2007,10,01,11,19,13.80
2007,10,01,11,20,13.90
2007,10,01,11,21,14.00
2007,10,01,11,22,14.00
2007,10,01,11,23,14.10
2007,10,01,11,24,14.20
2007,10,01,11,25,14.10
2007,10,01,11,26,14.10
2007,10,01,11,27,14.10
2007,10,01,11,28,14.10
2007,10,01,11,29,14.20
2007,10,01,11,30,14.20
2007,10,01,11,31,14.30
2007,10,01,11,32,14.30
2007,10,01,11,33,14.30
2007,10,01,11,34,14.30
2007,10,01,11,35,14.30
2007,10,01,11,36,14.40
2007,10,01,11,37,14.50
2007,10,01,11,38,14.50
2007,10,01,11,39,14.60
2007,10,01,11,40,14.70
2007,10,01,11,41,14.80
2007,10,01,11,42,14.70
2007,10,01,11,43,14.70
2007,10,01,11,44,14.80
2007,10,01,11,45,14.90
2007,10,01,11,46,15.00
2007,10,01,11,47,15.10
2007,10,01,11,48,15.20
2007,10,01,11,49,15.30
2007,10,01,11,50,15.40
2007,10,01,11,51,15.40
2007,10,01,11,52,15.50
2007,10,01,11,53,15.50
2007,10,01,11,54,15.60
2007,10,01,11,55,15.60
2007,10,01,11,56,15.60
2007,10,01,11,57,15.60
2007,10,01,11,58,15.70
2007,10,01,11,59,15.70
2007,10,01,12,00,15.60
2007,10,01,12,01,15.50
2007,10,01,12,02,15.40
2007,10,01,12,03,15.40
2007,10,01,12,04,15.40
2007,10,01,12,05,15.30
2007,10,01,12,06,15.30
2007,10,01,12,07,15.30
2007,10,01,12,08,15.10
2007,10,01,12,09,15.10
2007,10,01,12,10,15.20
2007,10,01,12,11,15.20
2007,10,01,12,12,15.20
2007,10,01,12,13,15.30
2007,10,01,12,14,15.40
2007,10,01,12,15,15.40
2007,10,01,12,16,15.30
2007,10,01,12,17,15.30
2007,10,01,12,18,15.30
2007,10,01,12,19,15.30
2007,10,01,12,20,15.40
2007,10,01,12,21,15.50
2007,10,01,12,22,15.60
2007,10,01,12,23,15.60
2007,10,01,12,24,15.70
2007,10,01,12,25,15.80
2007,10,01,12,26,16.00
2007,10,01,12,27,16.00
2007,10,01,12,28,15.90
2007,10,01,12,29,15.80
2007,10,01,12,30,15.70
2007,10,01,12,31,15.70
2007,10,01,12,32,15.80
2007,10,01,12,33,15.80
2007,10,01,12,34,15.80
2007,10,01,12,35,15.80
2007,10,01,12,36,15.80
2007,10,01,12,37,15.80
2007,10,01,12,38,15.80
2007,10,01,12,39,15.70
2007,10,01,12,40,15.70
2007,10,01,12,41,15.60
2007,10,01,12,42,15.60
2007,10,01,12,43,15.50
2007,10,01,12,44,15.50
2007,10,01,12,45,15.40
2007,10,01,12,46,15.40
2007,10,01,12,47,15.40
2007,10,01,12,48,15.40
2007,10,01,12,49,15.40
2007,10,01,12,50,15.40
2007,10,01,12,51,15.40
2007,10,01,12,52,15.40
2007,10,01,12,53,15.30
2007,10,01,12,54,15.30
2007,10,01,12,55,15.30
2007,10,01,12,56,15.30
2007,10,01,12,57,15.30
2007,10,01,12,58,15.30
2007,10,01,12,59,15.40
2007,10,01,13,00,15.30
2007,10,01,13,01,15.30
2007,10,01,13,02,15.30
2007,10,01,13,03,15.40
2007,10,01,13,04,15.40
2007,10,01,13,05,15.50
2007,10,01,13,06,15.50
2007,10,01,13,07,15.50
2007,10,01,13,08,15.50
2007,10,01,13,09,15.50
2007,10,01,13,10,15.50
2007,10,01,13,11,15.40
2007,10,01,13,12,15.40
2007,10,01,13,13,15.50
2007,10,01,13,14,15.50
2007,10,01,13,15,15.60
2007,10,01,13,16,15.70
2007,10,01,13,17,15.60
2007,10,01,13,18,15.60
2007,10,01,13,19,15.50
2007,10,01,13,20,15.40
2007,10,01,13,21,15.40
2007,10,01,13,22,15.40
2007,10,01,13,23,15.50
2007,10,01,13,24,15.50
2007,10,01,13,25,15.50
2007,10,01,13,26,15.50
2007,10,01,13,27,15.60
2007,10,01,13,28,15.60
2007,10,01,13,29,15.60
2007,10,01,13,30,15.50
2007,10,01,13,31,15.40
2007,10,01,13,32,15.40
2007,10,01,13,33,15.50
2007,10,01,13,34,15.50
2007,10,01,13,35,15.50
2007,10,01,13,36,15.50
2007,10,01,13,37,15.50
2007,10,01,13,38,15.40
2007,10,01,13,39,15.30
2007,10,01,13,40,15.20
2007,10,01,13,41,15.20
2007,10,01,13,42,15.10
2007,10,01,13,43,15.10
2007,10,01,13,44,15.10
2007,10,01,13,45,15.10
2007,10,01,13,46,15.10
2007,10,01,13,47,15.10
2007,10,01,13,48,15.20
2007,10,01,13,49,15.20
2007,10,01,13,50,15.20
2007,10,01,13,51,15.20
2007,10,01,13,52,15.20
2007,10,01,13,53,15.30
2007,10,01,13,54,15.30
2007,10,01,13,55,15.30
2007,10,01,13,56,15.30
2007,10,01,13,57,15.30
2007,10,01,13,58,15.40
2007,10,01,13,59,15.40
2007,10,01,14,00,15.40
2007,10,01,14,01,15.40
2007,10,01,14,02,15.40
2007,10,01,14,03,15.40
2007,10,01,14,04,15.50
2007,10,01,14,05,15.50
2007,10,01,14,06,15.60
2007,10,01,14,07,15.70
2007,10,01,14,08,15.70
2007,10,01,14,09,15.70
2007,10,01,14,10,15.60
2007,10,01,14,11,15.50
2007,10,01,14,12,15.40
2007,10,01,14,13,15.40
2007,10,01,14,14,15.30
2007,10,01,14,15,15.30
2007,10,01,14,16,15.30
2007,10,01,14,17,15.20
2007,10,01,14,18,15.20
2007,10,01,14,19,15.10
2007,10,01,14,20,15.10
2007,10,01,14,21,15.00
2007,10,01,14,22,15.00
2007,10,01,14,23,15.00
2007,10,01,14,24,14.80
2007,10,01,14,25,14.80
2007,10,01,14,26,14.70
2007,10,01,14,27,14.50
2007,10,01,14,28,14.40
2007,10,01,14,29,14.30
2007,10,01,14,30,14.20
2007,10,01,14,31,14.10
2007,10,01,14,32,14.10
2007,10,01,14,33,14.10
2007,10,01,14,34,14.10
2007,10,01,14,35,14.20
2007,10,01,14,36,14.20
2007,10,01,14,37,14.20
2007,10,01,14,38,14.20
2007,10,01,14,39,14.30
2007,10,01,14,40,14.30
2007,10,01,14,41,14.40
2007,10,01,14,42,14.50
2007,10,01,14,43,14.60
2007,10,01,14,44,14.70
2007,10,01,14,45,14.80
2007,10,01,14,46,14.80
2007,10,01,14,47,14.90
2007,10,01,14,48,14.90
2007,10,01,14,49,15.00
2007,10,01,14,50,15.00
2007,10,01,14,51,15.00
2007,10,01,14,52,15.00
2007,10,01,14,53,15.00
2007,10,01,14,54,15.00
2007,10,01,14,55,15.00
2007,10,01,14,56,15.00
2007,10,01,14,57,15.00
2007,10,01,14,58,15.00
2007,10,01,14,59,15.00
2007,10,01,15,00,15.00
2007,10,01,15,01,15.00
2007,10,01,15,02,15.00
2007,10,01,15,03,15.00
2007,10,01,15,04,15.00
2007,10,01,15,05,14.90
2007,10,01,15,06,14.90
2007,10,01,15,07,14.90
2007,10,01,15,08,14.90
2007,10,01,15,09,14.90
2007,10,01,15,10,14.80
2007,10,01,15,11,14.80
2007,10,01,15,12,14.80
2007,10,01,15,13,14.80
2007,10,01,15,14,14.70
2007,10,01,15,15,14.70
2007,10,01,15,16,14.70
2007,10,01,15,17,14.70
2007,10,01,15,18,14.70
2007,10,01,15,19,14.60
2007,10,01,15,20,14.60
2007,10,01,15,21,14.60
2007,10,01,15,22,14.60
2007,10,01,15,23,14.50
2007,10,01,15,24,14.50
2007,10,01,15,25,14.50
2007,10,01,15,26,14.50
2007,10,01,15,27,14.40
2007,10,01,15,28,14.40
2007,10,01,15,29,14.40
2007,10,01,15,30,14.40
2007,10,01,15,31,14.40
2007,10,01,15,32,14.40
2007,10,01,15,33,14.30
2007,10,01,15,34,14.30
2007,10,01,15,35,14.30
2007,10,01,15,36,14.30
2007,10,01,15,37,14.30
2007,10,01,15,38,14.20
2007,10,01,15,39,14.20
2007,10,01,15,40,14.20
2007,10,01,15,41,14.20
2007,10,01,15,42,14.20
2007,10,01,15,43,14.20
2007,10,01,15,44,14.20
2007,10,01,15,45,14.20
2007,10,01,15,46,14.20
2007,10,01,15,47,14.20
2007,10,01,15,48,14.20
2007,10,01,15,49,14.20
2007,10,01,15,50,14.20
2007,10,01,15,51,14.20
2007,10,01,15,52,14.20
2007,10,01,15,53,14.20
2007,10,01,15,54,14.20
2007,10,01,15,55,14.20
2007,10,01,15,56,14.30
2007,10,01,15,57,14.30
2007,10,01,15,58,14.30
2007,10,01,15,59,14.30
2007,10,01,16,00,14.30
2007,10,01,16,01,14.30
2007,10,01,16,02,14.30
2007,10,01,16,03,14.30
2007,10,01,16,04,14.30
2007,10,01,16,05,14.40
2007,10,01,16,06,14.40
2007,10,01,16,07,14.40
2007,10,01,16,08,14.40
2007,10,01,16,09,14.40
2007,10,01,16,10,14.40
2007,10,01,16,11,14.40
2007,10,01,16,12,14.50
2007,10,01,16,13,14.50
2007,10,01,16,14,14.50
2007,10,01,16,15,14.50
2007,10,01,16,16,14.40
2007,10,01,16,17,14.40
2007,10,01,16,18,14.40
2007,10,01,16,19,14.40
2007,10,01,16,20,14.40
2007,10,01,16,21,14.40
2007,10,01,16,22,14.40
2007,10,01,16,23,14.40
2007,10,01,16,24,14.40
2007,10,01,16,25,14.40
2007,10,01,16,26,14.40
2007,10,01,16,27,14.40
2007,10,01,16,28,14.40
2007,10,01,16,29,14.40
2007,10,01,16,30,14.40
2007,10,01,16,31,14.40
2007,10,01,16,32,14.30
2007,10,01,16,33,14.30
2007,10,01,16,34,14.20
2007,10,01,16,35,14.20
2007,10,01,16,36,14.20
2007,10,01,16,37,14.20
2007,10,01,16,38,14.20
2007,10,01,16,39,14.20
2007,10,01,16,40,14.10
2007,10,01,16,41,14.10
2007,10,01,16,42,14.00
2007,10,01,16,43,14.00
2007,10,01,16,44,14.00
2007,10,01,16,45,14.00
2007,10,01,16,46,14.00
2007,10,01,16,47,13.90
2007,10,01,16,48,13.90
2007,10,01,16,49,13.90
2007,10,01,16,50,13.90
2007,10,01,16,51,13.90
2007,10,01,16,52,13.90
2007,10,01,16,53,13.80
2007,10,01,16,54,13.80
2007,10,01,16,55,13.80
2007,10,01,16,56,13.80
2007,10,01,16,57,13.80
2007,10,01,16,58,13.80
2007,10,01,16,59,13.80
2007,10,01,17,00,13.80
2007,10,01,17,01,13.80
2007,10,01,17,02,13.80
2007,10,01,17,03,13.70
2007,10,01,17,04,13.70
2007,10,01,17,05,13.70
2007,10,01,17,06,13.70
2007,10,01,17,07,13.70
2007,10,01,17,08,13.70
2007,10,01,17,09,13.70
2007,10,01,17,10,13.70
2007,10,01,17,11,13.70
2007,10,01,17,12,13.70
2007,10,01,17,13,13.60
2007,10,01,17,14,13.60
2007,10,01,17,15,13.60
2007,10,01,17,16,13.50
2007,10,01,17,17,13.50
2007,10,01,17,18,13.50
2007,10,01,17,19,13.50
2007,10,01,17,20,13.50
2007,10,01,17,21,13.40